Content
SEND FEEDBACK

Daily
Averages
Monthly
Summary
United States of America

KIOWA - SOUTH, COLORADO


Home > North America > United States > Colorado
Elevation: 6400 feet     Latitude: 39 17N     Longitude: 104 28W

WEATHER
 
SELECT A DAY
Number of Records: 309,860;   Date Range: 8/29/01 - 11/25/14
 
SHARE

PRINT THIS DATA

[ ← Previous Day ]
WEATHER ALMANAC - FEBRUARY 13, 2013
[ Next Day → ]
[ °C ]   °F
Weather ElementAverageHighLow
Temperature27.6 °F41 °F (10:33 am)14 °F (4:55 am)
Dewpoint7.9 °F12.2 °F (4:55 pm)-0.4 °F (12:33 am)
Humidity45.6 %73 % (11:14 pm)21 % (11:14 am)
Barometer29.94 in29.99 in (9:54 pm)29.90 in (6:54 am)
Wind Speed9 mph23 mph (2:34 pm)
Wind Gust28.8 mph (1:34 pm)
Weather ElementAverage
Visibility10 mi
Wind DirectionWSW (252.1 °)

Weather ElementTotal
Precipitation---
Heating Degree Days37.5 (Base 65)
Averaged from 71 records on February 13, 2013
WEATHER CONDITIONS BREAKOUT
WIND DIRECTION BREAKOUT
WEATHER BY HOUR - FEBRUARY 13, 2013
[ °C ]   °F
Local TimeTemperatureDewpointHumidityBarometerVisibilityWind DirectionWind SpeedGust SpeedPrecipitationEventsConditions
12:33 AM19.4 °F-0.4 °F42 %29.96 in10.0 miSW (220°)8.1 mphClear
12:55 AM19.4 °F-0.4 °F42 %29.97 in10.0 miSW (230°)6.9 mphClear
1:15 AM17.6 °F-0.4 °F45 %29.97 in10.0 miSW (230°)4.6 mphClear
1:35 AM17.6 °F-0.4 °F45 %29.96 in10.0 miWSW (240°)5.8 mphClear
1:55 AM19.4 °F1.4 °F46 %29.96 in10.0 miWSW (250°)6.9 mphScattered Clouds
2:15 AM19.4 °F3.2 °F49 %29.95 in10.0 miWSW (250°)8.1 mphClear
2:35 AM17.6 °F3.2 °F53 %29.94 in10.0 miWest (260°)8.1 mphClear
2:54 AM17.6 °F3.2 °F53 %29.93 in10.0 miWSW (250°)8.1 mphClear
3:15 AM19.4 °F3.2 °F49 %29.92 in10.0 miSW (230°)6.9 mphClear
3:35 AM19.4 °F3.2 °F49 %29.91 in10.0 miSSW (210°)5.8 mphClear
3:55 AM19.4 °F1.4 °F46 %29.92 in10.0 miSW (230°)8.1 mphClear
4:15 AM17.6 °F3.2 °F53 %29.92 in10.0 miSW (230°)9.2 mphClear
4:35 AM17.6 °F3.2 °F53 %29.91 in10.0 miSW (220°)9.2 mphClear
4:55 AM14.0 °F5.0 °F67 %29.91 in10.0 miSSW (210°)6.9 mphClear
5:13 AM17.6 °F5.0 °F58 %29.92 in10.0 miSW (220°)6.9 mphClear
5:35 AM19.4 °F5.0 °F54 %29.91 in10.0 miSW (220°)9.2 mphClear
5:55 AM19.4 °F5.0 °F54 %29.91 in10.0 miSW (220°)10.4 mphClear
6:15 AM19.4 °F5.0 °F54 %29.91 in10.0 miSW (230°)10.4 mphClear
6:34 AM19.4 °F6.8 °F58 %29.91 in10.0 miSW (230°)9.2 mphClear
6:54 AM19.4 °F6.8 °F58 %29.90 in10.0 miSW (230°)10.4 mphClear
7:14 AM21.2 °F6.8 °F54 %29.90 in10.0 miSSW (210°)8.1 mphClear
7:34 AM21.2 °F8.6 °F58 %29.90 in10.0 miSSW (210°)6.9 mphClear
7:54 AM26.6 °F8.6 °F47 %29.91 in10.0 miSW (230°)10.4 mphClear
8:14 AM28.4 °F10.4 °F47 %29.91 in10.0 miSW (220°)8.1 mphClear
8:34 AM32.0 °F10.4 °F41 %29.91 in10.0 miWSW (240°)8.1 mphClear
8:53 AM33.8 °F10.4 °F38 %29.91 in10.0 miSW (230°)9.2 mphClear
9:13 AM35.6 °F8.6 °F33 %29.91 in10.0 miSW (230°)9.2 mphClear
9:34 AM35.6 °F8.6 °F33 %29.91 in10.0 miSW (230°)6.9 mphClear
9:54 AM37.4 °F8.6 °F30 %29.91 in10.0 miWSW (240°)9.2 mphClear
10:14 AM37.4 °F5.0 °F26 %29.91 in10.0 miWSW (250°)6.9 mphClear
10:33 AM41.0 °F5.0 °F23 %29.90 in10.0 miWSW (250°)3.5 mphClear
10:54 AM41.0 °F5.0 °F23 %29.91 in10.0 miWNW (290°)8.1 mphClear
11:14 AM41.0 °F3.2 °F21 %29.92 in10.0 miNW (320°)16.1 mph20.7 mphClear
11:34 AM41.0 °F5.0 °F23 %29.93 in10.0 miNNW (330°)12.7 mphClear
11:53 AM39.2 °F5.0 °F24 %29.93 in10.0 miNNW (340°)17.3 mph21.9 mphClear
12:14 PM39.2 °F5.0 °F24 %29.93 in10.0 miNNW (330°)15.0 mph21.9 mphClear
12:34 PM37.4 °F8.6 °F30 %29.92 in10.0 miNorth (350°)21.9 mph27.6 mphClear
12:54 PM37.4 °F8.6 °F30 %29.92 in10.0 miNNW (340°)18.4 mph26.5 mphClear
1:14 PM39.2 °F10.4 °F31 %29.92 in10.0 miNNW (340°)19.6 mph25.3 mphClear
1:34 PM37.4 °F8.6 °F30 %29.92 in10.0 miNorth (350°)20.7 mph28.8 mphClear
1:54 PM37.4 °F10.4 °F33 %29.92 in10.0 miNorth (350°)19.6 mph26.5 mphClear
2:14 PM39.2 °F10.4 °F31 %29.92 in10.0 miNNW (330°)17.3 mph25.3 mphClear
2:34 PM39.2 °F8.6 °F28 %29.91 in10.0 miNW (320°)23.0 mph27.6 mphClear
2:54 PM37.4 °F8.6 °F30 %29.92 in10.0 miNNW (330°)18.4 mphClear
3:14 PM35.6 °F8.6 °F33 %29.93 in10.0 miNorth (350°)17.3 mphClear
3:34 PM35.6 °F10.4 °F35 %29.92 in10.0 miNNW (340°)13.8 mphClear
3:53 PM35.6 °F10.4 °F35 %29.92 in10.0 miNNW (340°)13.8 mphClear
4:14 PM33.8 °F10.4 °F38 %29.93 in10.0 miNorth (350°)12.7 mphClear
4:34 PM33.8 °F10.4 °F38 %29.92 in10.0 miNNW (340°)9.2 mphClear
4:55 PM32.0 °F12.2 °F44 %29.92 in10.0 miNNW (340°)5.8 mphClear
5:14 PM32.0 °F12.2 °F44 %29.93 in10.0 miCalmClear
5:34 PM30.2 °F12.2 °F47 %29.94 in10.0 miENE (60°)3.5 mphClear
5:54 PM30.2 °F12.2 °F47 %29.94 in10.0 miCalmClear
6:13 PM28.4 °F12.2 °F51 %29.94 in10.0 miWest (280°)5.8 mphClear
6:33 PM28.4 °F12.2 °F51 %29.94 in10.0 miWest (270°)4.6 mphClear
6:54 PM30.2 °F12.2 °F47 %29.95 in10.0 miWNW (290°)4.6 mphClear
7:13 PM30.2 °F12.2 °F47 %29.96 in10.0 miWest (280°)5.8 mphClear
7:33 PM28.4 °F12.2 °F51 %29.97 in10.0 miWest (280°)5.8 mphClear
7:54 PM26.6 °F12.2 °F55 %29.97 in10.0 miWest (270°)5.8 mphClear
8:13 PM26.6 °F12.2 °F55 %29.97 in10.0 miWest (260°)4.6 mphClear
8:34 PM23.0 °F12.2 °F63 %29.97 in10.0 miWNW (290°)4.6 mphClear
8:53 PM24.8 °F12.2 °F59 %29.97 in10.0 miWNW (300°)5.8 mphClear
9:14 PM23.0 °F10.4 °F59 %29.98 in10.0 miWNW (300°)3.5 mphClear
9:34 PM21.2 °F10.4 °F63 %29.98 in10.0 miWest (280°)3.5 mphClear
9:54 PM23.0 °F12.2 °F63 %29.99 in10.0 miWSW (250°)6.9 mphClear
10:14 PM19.4 °F10.4 °F68 %29.99 in10.0 miWSW (240°)4.6 mphClear
10:34 PM23.0 °F10.4 °F59 %29.99 in10.0 miWSW (250°)4.6 mphClear
10:54 PM19.4 °F10.4 °F68 %29.99 in10.0 miCalmClear
11:14 PM17.6 °F10.4 °F73 %29.99 in10.0 miSSE (150°)4.6 mphClear
11:34 PM23.0 °F12.2 °F63 %29.99 in10.0 miSSE (150°)5.8 mphClear
11:54 PM21.2 °F12.2 °F68 %29.99 in10.0 miSouth (170°)5.8 mphClear
Hourly data recorded from KMNH, located miles away from Kiowa - South, Colorado







STORIES FROM OUR PARTNERS